Printer-friendly version

IAU Minor Planet Center

Minor Planet Center

(51) Nemausa

Orbital Elements

The following orbital elements are taken from MPC 31001:
   (51) Nemausa
Epoch 2007 Apr. 10.0 TT = JDT 2454200.5                 Goffin
M 343.72579              (2000.0)            P               Q
n   0.27092792     Peri.    2.85685     -0.99980461     -0.01602394
a   2.3653761      Node   176.16721     +0.01288323     -0.97233191
e   0.0664134      Incl.    9.97185     +0.01499244     -0.23305340
P   3.64           H    7.35          G   0.08           U   0
From 3595 observations at 87 oppositions, 1858-1997, mean residual 0".52.
An explanation of the orbital elements is available.

These orbital elements are also available in forms suitable for loading into a number of popular planetarium-type software programs.


Ephemeris

The following ephemeris is at intervals of five days. A daily ephemeris covering the same time interval is also available.

Personalized ephemerides for this object (and others) can be generated using the MPES.

Date    TT    R. A. (2000) Decl.     Delta      r     Elong.  Phase     V
2007 01 01    09 55.88   +01 12.5    1.508    2.256   128.6    19.9    11.1
2007 01 06    09 55.37   +01 11.6    1.459    2.253   133.6    18.4    11.0
2007 01 11    09 54.12   +01 16.9    1.415    2.250   138.8    16.7    10.8
2007 01 16    09 52.14   +01 28.8    1.375    2.248   144.2    14.8    10.7
2007 01 21    09 49.48   +01 47.5    1.340    2.245   149.7    12.8    10.6
2007 01 26    09 46.20   +02 12.8    1.310    2.243   155.3    10.6    10.4
2007 01 31    09 42.41   +02 44.6    1.287    2.240   160.7     8.3    10.3
2007 02 05    09 38.24   +03 22.1    1.269    2.238   165.8     6.2    10.1
2007 02 10    09 33.83   +04 04.6    1.258    2.236   169.5     4.6    10.0
2007 02 15    09 29.35   +04 51.1    1.254    2.234   170.1     4.3    10.0
2007 02 20    09 24.97   +05 40.2    1.257    2.231   167.2     5.6    10.1
2007 02 25    09 20.87   +06 30.5    1.266    2.229   162.5     7.7    10.2
2007 03 02    09 17.21   +07 20.8    1.281    2.228   157.1    10.0    10.3
2007 03 07    09 14.12   +08 09.7    1.303    2.226   151.6    12.3    10.5
2007 03 12    09 11.69   +08 56.4    1.329    2.224   146.0    14.4    10.6
2007 03 17    09 09.99   +09 39.8    1.362    2.222   140.6    16.5    10.7
2007 03 22    09 09.08   +10 19.3    1.398    2.221   135.4    18.4    10.8
2007 03 27    09 08.98   +10 54.5    1.439    2.219   130.3    20.0    11.0
2007 04 01    09 09.69   +11 25.1    1.483    2.218   125.5    21.5    11.1
2007 04 06    09 11.16   +11 50.9    1.531    2.216   120.8    22.8    11.2
2007 04 11    09 13.37   +12 11.9    1.581    2.215   116.3    23.9    11.3
2007 04 16    09 16.27   +12 28.2    1.633    2.214   112.1    24.8    11.4
2007 04 21    09 19.82   +12 39.7    1.686    2.213   108.0    25.6    11.5
2007 04 26    09 23.98   +12 46.7    1.741    2.212   104.0    26.2    11.6
2007 05 01    09 28.68   +12 49.4    1.798    2.211   100.2    26.6    11.7
2007 05 06    09 33.88   +12 47.8    1.854    2.211    96.6    27.0    11.7
2007 05 11    09 39.52   +12 42.2    1.912    2.210    93.1    27.1    11.8

Back to Bright Minor Planets

Astronomical Headlines Index

MPC


Valid HTML 4.01!